Weather History for KCAG - June, 2013

Change the Weather History Date:

Friday, June 28, 2013

  Actual Average Record
Temperature  
Mean Temperature 72 °F 63 °F  
Max Temperature 97 °F 84 °F 97 °F (2013)
Min Temperature 46 °F 43 °F 36 °F (2000)
Degree Days  
Heating Degree Days 0 3  
Month to date heating degree days 88 172  
Since 1 June heating degree days 88 172  
Since 1 July heating degree days 8587 8631  
Cooling Degree Days 7 1  
Month to date cooling degree days 29 5  
Year to date cooling degree days 29 5  
Since 1 June cooling degree days 29 5  
Growing Degree Days 22 (Base 50)    
Moisture  
Dew Point 41 °F    
Average Humidity 41    
Maximum Humidity 71    
Minimum Humidity 10    
Precipitation  
Precipitation 0.00 in 0.03 in 0.18 in (2005)
Month to date precipitation T 1.27  
Year to date precipitation 5.25 7.46  
Sea Level Pressure  
Sea Level Pressure 30.08 in    
Wind  
Wind Speed 1 mph (ENE)    
Max Wind Speed 12 mph    
Max Gust Speed 18 mph    
Visibility 10 miles    
Events      
T = Trace of Precipitation, MM = Missing Value Source: NWS Daily Summary

Daily Weather History Graph

Daily Weather History Graph

Search for Another Location

Airport or City:

Trip Planner

Search our weather history database for the weather conditions in past years. The results will help you decide how hot, cold, wet, or windy it might be!

Date:

Astronomy

Jun. 28, 2013 Rise Set
Actual Time 5:42 AM MDT 8:44 PM MDT
Civil Twilight 5:08 AM MDT 9:17 PM MDT
Nautical Twilight 4:26 AM MDT 9:59 PM MDT
Astronomical Twilight 3:37 AM MDT 10:49 PM MDT
Moon No Moon Rise 11:54 AM MDT (6/28)
Length of Visible Light 16h 08m
Length of Day
15h 02m
Waning Gibbous, 65% of the Moon is Illuminated
Jun 28
Waning Gibbous
Jun 29
Last Quarter
Jul 8
New
Jul 15
First Quarter
Jul 22
Full

Hourly Weather History & Observations

Time (MDT) Temp. Dew Point Humidity Pressure Visibility Wind Dir Wind Speed Gust Speed Precip Events Conditions
12:53 AM 57.0 °F 45.0 °F 64% 30.10 in 10.0 mi Calm Calm - N/A   Clear
1:53 AM 52.0 °F 43.0 °F 71% 30.10 in 10.0 mi Calm Calm - N/A   Clear
2:53 AM 51.1 °F 42.1 °F 71% 30.12 in 10.0 mi South 3.5 mph - N/A   Clear
3:53 AM 50.0 °F 41.0 °F 71% 30.12 in 10.0 mi Calm Calm - N/A   Clear
4:53 AM 48.0 °F 39.9 °F 74% 30.14 in 10.0 mi Calm Calm - N/A   Clear
5:53 AM 48.0 °F 39.0 °F 71% 30.17 in 10.0 mi NE 3.5 mph - N/A   Clear
6:53 AM 53.1 °F 43.0 °F 69% 30.17 in 10.0 mi Calm Calm - N/A   Clear
7:53 AM 57.9 °F 43.0 °F 58% 30.16 in 10.0 mi Calm Calm - N/A   Clear
8:53 AM 66.9 °F 42.1 °F 40% 30.17 in 10.0 mi Calm Calm - N/A   Clear
9:53 AM 73.0 °F 42.1 °F 33% 30.17 in 10.0 mi Calm Calm - N/A   Clear
10:53 AM 81.0 °F 39.0 °F 22% 30.14 in 10.0 mi Variable 3.5 mph - N/A   Clear
11:53 AM 86.0 °F 36.0 °F 17% 30.12 in 10.0 mi Calm Calm - N/A   Clear
12:53 PM 91.0 °F 32.0 °F 12% 30.10 in 10.0 mi SSW 3.5 mph - N/A   Clear
1:53 PM 93.0 °F 32.0 °F 12% 30.08 in 10.0 mi Calm Calm - N/A   Clear
2:53 PM 95.0 °F 30.0 °F 10% 30.05 in 10.0 mi Calm Calm - N/A   Clear
3:53 PM 97.0 °F 32.0 °F 10% 30.02 in 10.0 mi North 6.9 mph - N/A   Clear
4:53 PM 93.0 °F 34.0 °F 12% 30.02 in 10.0 mi NNW 6.9 mph - N/A   Clear
5:53 PM 93.9 °F 33.1 °F 12% 30.01 in 10.0 mi Calm Calm - N/A   Clear
6:53 PM 89.1 °F 37.9 °F 16% 30.00 in 10.0 mi Calm Calm - N/A   Clear
7:53 PM 80.1 °F 50.0 °F 35% 30.00 in 10.0 mi Calm Calm - N/A   Clear
8:53 PM 75.0 °F 54.0 °F 48% 29.99 in 10.0 mi Calm Calm - N/A   Clear
9:53 PM 70.0 °F 50.0 °F 49% 29.99 in 10.0 mi Calm Calm - N/A   Clear
10:53 PM 68.0 °F 51.1 °F 55% 29.97 in 10.0 mi ESE 3.5 mph - N/A   Clear
11:53 PM 68.0 °F 46.0 °F 45% 29.98 in 10.0 mi Calm Calm - N/A   Clear